Flag for U.S.A. Weather past 2 weeks in Manassas, Virginia, U.S.A.

Now
75 °F

Partly sunny.


Feels Like: 78 °F
Forecast: 59 / 75 °F
Wind: 9 mph from North

Location: Manassas Municipal

Current Time: Sep 16, 2014 at 1:30:44 PM

Latest Report: Sep 16, 2014 at 12:45 PM


Visibility: 10 mi

Pressure: 30.03 "Hg

Humidity: 50%

Dew point: 55 °F

Location of ManassasLocation

Historic Weather in Manassas — Graph

°F

Manassas temperature yesterday

Maximum temperature yesterday: 73 °F (at 1:45 PM)
Minimum temperature yesterday: 46 °F (at 6:15 AM)
Average temperature yesterday: 56 °F

Past Weeks' High & Low Weather Summary

 TemperatureHumidityPressure
High91 °F (Sep 2, 1:50 PM)100% (Sep 1, 10:35 PM)30.34 "Hg (Sep 1, 10:35 PM)
Low46 °F (Sep 14, 5:55 AM)34% (Sep 7, 3:45 PM)29.86 "Hg (Sep 2, 4:45 PM)
Average71 °F86%30.08 "Hg
* Reported Sep 1 11:45 AM — Sep 16 11:45 AM, Manassas, Weather by CustomWeather, © 2014

Note: Actual official high and low records may vary slightly from our data, if they occured in-between our weather recording intervals... More about our weather records

Advertising

Manassas weather history for previous 24 hours

 ConditionsComfort  
Time TempWeatherWind HumidityBarometerVisibility
11:45 AM
Sep 16
73 °FPartly sunny.9 mph53%30.04 "Hg10 mi
10:45 AM73 °FScattered clouds.20 mph57%30.05 "Hg10 mi
8:45 AM66 °FPartly sunny.No wind83%30.04 "Hg10 mi
7:15 AM59 °FOvercast.No wind100%30.03 "Hg9 mi
6:55 AM59 °FOvercast.No wind94%30.02 "Hg9 mi
6:35 AM57 °FPassing clouds.No wind100%30.02 "Hg10 mi
6:15 AM57 °FPassing clouds.No wind100%30.02 "Hg6 mi
5:55 AM57 °FPassing clouds.No wind100%30.02 "Hg1 mi
5:35 AM57 °FClear.No wind100%30.01 "Hg4 mi
5:15 AM57 °FClear.No wind100%30.02 "Hg8 mi
4:55 AM61 °FClear.No wind94%30.02 "Hg5 mi
4:35 AM61 °FClear.No wind100%30.01 "Hg10 mi
4:15 AM63 °FPassing clouds.No wind100%30.01 "Hg10 mi
3:55 AM63 °FPartly cloudy.3 mph100%30.01 "Hg10 mi
3:35 AM63 °FPartly cloudy.3 mph94%30.01 "Hg10 mi
3:15 AM63 °FOvercast.No wind94%30.01 "Hg10 mi
2:55 AM63 °FOvercast.No wind100%30.01 "Hg10 mi
2:35 AM63 °FOvercast.No wind100%30.02 "Hg10 mi
2:15 AM63 °FMostly cloudy.No wind94%30.03 "Hg10 mi
1:55 AM63 °FPartly cloudy.No wind100%30.03 "Hg10 mi
1:35 AM63 °FPartly cloudy.6 mph100%30.03 "Hg10 mi
1:15 AM63 °FOvercast.No wind94%30.04 "Hg10 mi
12:55 AM63 °FPassing clouds.No wind100%30.04 "Hg10 mi
12:35 AM63 °FClear.No wind100%30.03 "Hg10 mi
12:15 AM63 °FClear.No wind100%30.03 "Hg10 mi
11:55 PM
Sep 15
63 °FPassing clouds.No wind100%30.04 "Hg10 mi
11:35 PM63 °FPassing clouds.No wind100%30.05 "Hg10 mi
10:55 PM64 °FClear.3 mph94%30.07 "Hg10 mi
10:35 PM63 °FClear.3 mph100%30.08 "Hg10 mi
10:15 PM63 °FClear.5 mph100%30.08 "Hg10 mi
7:50 PM66 °FSunny.No wind83%30.10 "Hg10 mi
6:50 PM70 °FSunny.5 mph73%30.10 "Hg10 mi
4:45 PM73 °FPassing clouds.7 mph53%30.13 "Hg10 mi
3:45 PM73 °FScattered clouds.No wind69%30.14 "Hg10 mi
1:45 PM73 °FSunny.5 mph50%30.19 "Hg10 mi
Weather by CustomWeather, © 2014

See weather overviewHow to use our weather pages